Regional Weather Roundup
Issued by NWS

Home | Current Version | Previous Version | Text Only | Print | Product List | Glossary Off
Versions: 1 2 3 4 5 6 7 8 9 10 11 12 13 14 15 16 17 18 19 20 21 22 23 24 25 26 27 28 29 30 31 32 33 34 35 36 37 38 39 40 41 42 43 44 45 46 47 48 49 50

000
ASUS43 KBIS 040302
RWRND

NORTH DAKOTA REGIONAL WEATHER ROUNDUP
NATIONAL WEATHER SERVICE BISMARCK ND
1000 PM CDT THU SEP 03 2015

NOTE: "FAIR" INDICATES FEW OR NO CLOUDS BELOW 12,000 FEET WITH NO
SIGNIFICANT WEATHER AND/OR OBSTRUCTIONS TO VISIBILITY.


NDZ001>003-009>011-017-040400-
NORTHWEST NORTH DAKOTA

CITY           SKY/WX    TMP DP  RH WIND       PRES   REMARKS
WILLISTON      MOCLDY    73  53  49 N12       29.78R
MINOT          PTCLDY    76  70  82 NW9       29.71R
$$

NDZ018>021-031>035-040>046-040400-
SOUTHWEST NORTH DAKOTA

CITY           SKY/WX    TMP DP  RH WIND       PRES   REMARKS
BISMARCK       CLOUDY    88  47  24 S13       29.69R
DICKINSON      MOCLDY    74  56  53 NE7       29.73S
GARRISON         N/A     73  66  78 N5        29.72R
HETTINGER ARPT PTCLDY    75  52  44 SE9       29.74S
$$

NDZ004>008-012>016-024-026-027-054-040400-
NORTHEAST NORTH DAKOTA

CITY           SKY/WX    TMP DP  RH WIND       PRES   REMARKS
GRAND FORKS    MOCLDY    82  72  71 S21G30    29.74R
GRND FRKS AFB  MOCLDY    82  73  74 S14       29.75R
DEVILS LAKE    CLOUDY    84  64  51 S14       29.72R
$$

NDZ022-023-025-028>030-036>039-047>053-040400-
SOUTHEAST NORTH DAKOTA

CITY           SKY/WX    TMP DP  RH WIND       PRES   REMARKS
FARGO          PTCLDY    82  73  74 SE14G24   29.79R
JAMESTOWN      CLOUDY    80  68  66 SE10      29.75R
$$



USA.gov is the U.S. government's official web portal to all federal, state and local government web resources and services.